Location: Banksville Park
(38.5557°N, 75.1182°W)
Time: 23:14:48
(UTC+00:00)

SKYMED 2 - Pass Details

Date: 19 September 2020
Orbit: 621 x 623 km, 97.9° (Epoch: 31 October)

Event Time Altitude Azimuth Distance (km) Brightness Sun altitude
Rises 10:05:00 0° 161° (SSE) 2,890 7.1 -8.8°
Reaches altitude 10° 10:07:11 10° 159° (SSE) 1,989 6.3 -8.4°
Maximum altitude 10:11:29 70° 75° (ENE) 666 4.0 -7.5°
Drops below altitude 10° 10:15:49 10° 353° (N) 2,003 6.2 -6.7°
Sets 10:18:02 0° 351° (N) 2,914 7.0 -6.3°
